Weather in Russkiy Brod

Russia / Oryol Oblast     52°36′24″N   37°21′29″E
temp.,
°C
wind,
m/s
gust,
m/s
humid.,
%
clouds,
%
prec.,
mm/h
press.,
hPa
HPBL,
m
20 june, sun
sun2000:00+16ese33870 0.0 102442
03:00+14ese33880 0.0 102434
06:00+15e35890 0.0 1023143
09:00+20ese46730 0.0 1023458
12:00+23ese456140 0.0 1023919
15:00+24ese455979 0.0 10221016
18:00+24ese477159 0.0 1021652
21:00+19e3484100 0.0 102151
21 june, mon
mon2100:00+17ese3590100 0.0 102183
03:00+16e379188 0.0 1021112
06:00+17e4988100 0.0 1020204
09:00+22e51074100 0.0 1020415
12:00+25ese676585 0.0 1020664
15:00+26ese5770100 0.0 1019719
18:00+25ese4878100 0.0 1019355
21:00+21e488843 0.0 1019143
22 june, tue
tue2200:00+19ese48922 0.0 1020123
03:00+18ese48935 0.0 1020142
06:00+19e411893 0.0 1020233
09:00+24ese610725 0.0 1020433
12:00+27ese686392 0.0 1020764
15:00+28ese576399 0.0 10201014
18:00+27ese48717 0.0 1019529
21:00+23ese49875 0.0 1020171
23 june, wed
wed2300:00+21ese47875 0.0 1020119
03:00+19e378653 0.0 102098
06:00+20ene49877 0.0 1020191
09:00+25ene587232 0.0 1020364
12:00+28e576258 0.0 1020821
15:00+29e565991 0.0 1019886
18:00+28e367039 0.0 1019505
21:00+23e338497 0.0 102023
24 june, thu
thu2400:00+21se1187100 0.0 102011
03:00+21ne228898 0.0 102011
06:00+22ene238594 0.0 102171
09:00+26e237115 0.0 1020342
12:00+29e225889 0.0 1020858
15:00+30ene115264 0.0 10201346
18:00+30ne126355 0.0 10191215
21:00+24ne22746 0.0 102015